[[{"header":{"parameterUnit":"m.s-1","parameterCategory":1,"la1":30.2991,"la2":30.254,"lo1":-89.0895,"lo2":-89.0444,"dy":0.0017,"dx":0.0017,"nx":28,"ny":28,"refTime":"2025-12-11T03:00:00:Z","depth":0,"parameterNumber":2,"parameterNumberName":"U-component_of_WINDS"},"data":[0,0,0,0,0,0,0,0,0,0,0,0,0,0,0,0,0,0,0,0,0,0,0,0,0,0,0,0,0,0,0,0,0,0,0,0,0,0,0,0,0,0,0,0,0,0,0,0,0,0,0,0,0,0,0,0,0,0,-0.9943,-0.9943,0,-0.9911,-0.9911,-0.9911,-0.983,-0.9829,-0.9827,-0.9825,-0.9797,-0.9797,-0.9798,0,0,0,0,0,0,0,0,0,0,0,0,0,-0.9939,-0.9939,-0.9943,-0.9943,-0.9942,-0.9911,-0.9911,-0.9911,-0.9831,-0.9829,-0.9827,-0.9825,-0.9796,-0.9797,-0.9798,0,0,0,0,0,0,0,0,0,0,0,0,0,-0.9927,-0.9939,-0.9943,-0.9899,-0.9894,-0.9912,-0.9911,-0.991,-0.9831,-0.9829,-0.9826,-0.9824,-0.9796,-0.9797,-0.9798,-0.9857,0,0,-0.9802,-0.9803,0,0,0,0,0,0,0,0,-0.9928,-0.9928,-0.9906,-0.9902,-0.9897,-0.9872,-0.9899,-0.9893,-0.9832,-0.9855,-0.9825,-0.9822,-0.9824,-0.9823,-0.9823,-0.9856,-0.9855,-0.9802,-0.9803,-0.9804,-0.9804,0,0,0,0,0,0,0,-0.9929,-0.9929,-0.9931,-0.9906,-0.99,-0.9882,-0.9877,-0.9897,-0.9855,-0.9853,-0.9847,-0.9844,-0.9821,-0.9822,-0.9821,-0.9854,-0.9802,-0.9803,-0.9804,-0.9805,-0.9936,-0.9939,0,0,0,0,0,0,-0.9936,-0.993,-0.9932,-0.993,-0.9906,-0.9884,-0.9879,-0.9883,-0.9854,-0.9847,-0.9847,-0.9841,-0.9821,-0.982,-0.982,-0.9888,-0.9804,-0.9805,-0.9805,-0.9933,-0.9937,-0.994,0,0,0,0,0,0,-0.9936,-0.9937,-0.9933,-0.9928,-0.9926,-0.9887,-0.9892,-0.9884,-0.9884,-0.9849,-0.9841,-0.9855,-0.9819,-0.9818,-0.9849,-0.9886,-0.9805,-0.9806,-0.993,-0.9934,-0.9938,-1.0025,0,0,0,0,0,0,-0.9936,-0.9937,-0.9958,-0.9929,-0.9927,-0.9961,-0.9894,-0.9885,-0.9886,-0.9878,-0.9855,-0.9848,-0.9817,-0.9847,-0.985,-0.9886,-0.9807,-0.9927,-0.9932,-0.9937,-1.0019,-1.0032,-1.0043,0,0,0,0,0,-0.9936,-0.9984,-0.996,-0.996,-0.9952,-0.9964,-0.9962,-0.9924,-0.9889,-0.9911,-0.9888,-0.9849,-0.9881,-0.9851,-0.9853,-0.9891,-0.9924,-0.9931,-0.9937,-1.0013,-1.0029,-1.0042,0,0,0,0,0,0,-1.002,-0.998,-0.9952,-0.9992,-0.9982,-0.995,-0.9976,-0.9942,-0.9942,-0.9935,-0.9888,-0.9884,-0.9921,-0.9909,-0.9876,-0.9947,-0.9896,-0.9904,-0.9954,-0.9969,-0.9981,-0.9984,-0.9808,0,0,0,0,0,-1.0043,-1.0054,-1.0019,-1.0058,-1.0054,-1.0016,-1.002,-0.9991,-0.9979,-0.9975,-0.9955,-0.9946,-0.9954,-0.996,-0.9966,-1.0016,-1.0011,-1.0043,-1.0055,-1.0065,-1.0072,-1.01,-1.0114,-0.996,-0.996,-0.996,0,0,-1.0091,-1.007,-1.008,-1.0074,-1.0063,-1.0077,-1.0013,-1.0031,-1.0042,-0.9978,-1.0005,-0.9991,-0.9978,-1.0019,-1.0036,-1.001,-1.0114,-1.0073,-1.0081,-1.0083,-1.0108,-1.0122,-1.0135,-0.9964,-0.9964,-0.9963,0,0,-1.0185,-1.017,-1.0201,-1.0191,-1.0175,-1.0149,-1.0157,-1.0131,-1.0118,-1.0145,-1.0098,-1.0111,-1.0125,-1.0118,-1.0117,-1.021,-1.0175,-1.0213,-1.0277,-1.0304,-1.0316,-1.0327,-1.0362,-1.0375,-1.022,-1.022,-1.022,0,-1.0247,-1.0266,-1.0222,-1.0243,-1.0243,-1.0184,-1.0217,-1.0209,-1.0196,-1.0198,-1.0168,-1.0186,-1.0173,-1.0213,-1.0236,-1.0236,-1.0244,-1.0216,-1.0318,-1.0328,-1.0337,-1.037,-1.0383,-1.0225,-1.0225,-1.0224,-1.0224,0,-1.0344,-1.0358,-1.0385,-1.0373,-1.0375,-1.0402,-1.0364,-1.0371,-1.0343,-1.0321,-1.035,-1.0332,-1.0334,-1.0341,-1.0313,-1.0377,-1.0362,-1.0326,-1.0274,-1.0357,-1.0388,-1.04,-1.0232,-1.023,-1.0229,-1.0228,0,0,-1.0491,-1.0454,-1.0465,-1.046,-1.0437,-1.0448,-1.0473,-1.0473,-1.0482,-1.0475,-1.0496,-1.051,-1.0476,-1.0475,-1.0446,-1.047,-1.0547,-1.0431,-1.043,-1.0454,-1.0619,-1.0648,-1.0663,-1.0523,-1.0525,-1.0527,-1.0621,0,-1.0582,-1.0621,-1.0582,-1.063,-1.0643,-1.0588,-1.061,-1.0599,-1.058,-1.059,-1.0568,-1.058,-1.0534,-1.0533,-1.0554,-1.0533,-1.058,-1.0526,-1.0544,-1.0545,-1.055,-1.0678,-1.0708,-1.0798,-1.0632,-1.0634,-1.0635,0,-1.0693,-1.069,-1.0739,-1.0714,-1.0718,-1.0739,-1.0737,-1.0746,-1.0734,-1.0718,-1.0717,-1.0681,-1.0706,-1.0654,-1.0688,-1.0652,-1.0657,-1.0649,-1.0651,-1.0653,-1.0596,-1.0685,-1.0825,-1.0839,-1.0653,-1.0652,-1.065,0,-1.0797,-1.0806,-1.0836,-1.0833,-1.0805,-1.0821,-1.081,-1.0795,-1.0798,-1.0797,-1.0799,-1.0801,-1.0803,-1.0806,-1.0773,-1.0738,-1.0812,-1.0758,-1.0802,-1.0803,-1.0821,-1.0821,-1.0966,-1.0822,-1.0822,-1.0821,-1.0821,0,-1.0904,-1.0936,-1.0883,-1.0902,-1.0938,-1.0894,-1.093,-1.0914,-1.0901,-1.0918,-1.087,-1.0887,-1.0841,-1.0853,-1.0827,-1.0861,-1.0861,-1.0851,-1.0844,-1.0856,-1.0858,-1.086,-1.0854,-1.0825,-1.0824,-1.0823,-1.0823,0,-1.1027,-1.0993,-1.1023,-1.0993,-1.0987,-1.1015,-1.099,-1.1008,-1.0985,-1.1006,-1.1009,-1.0974,-1.0986,-1.0953,-1.096,-1.0942,-1.0991,-1.0973,-1.0995,-1.0991,-1.1038,-1.1035,-1.1191,-1.121,-1.1052,-1.1054,-1.1055,0,-1.1098,-1.1121,-1.1095,-1.1101,-1.1093,-1.1105,-1.1108,-1.1066,-1.1071,-1.1059,-1.1079,-1.1087,-1.1091,-1.1113,-1.109,-1.1095,-1.1079,-1.1133,-1.1079,-1.1091,-1.1082,-1.1082,-1.1085,-1.1145,-1.1147,-1.1148,-1.1149,0,-1.1228,-1.121,-1.1215,-1.1215,-1.122,-1.1218,-1.1213,-1.1222,-1.1177,-1.1186,-1.1197,-1.1201,-1.1208,-1.1217,-1.1218,-1.1208,-1.1173,-1.1166,-1.1177,-1.1191,-1.1203,-1.1199,-1.1028,-1.1163,-1.1162,-1.1161,-1.116,-1.116,-1.1328,-1.1347,-1.1332,-1.134,-1.1331,-1.1328,-1.1343,-1.1322,-1.1331,-1.1332,-1.1307,-1.1325,-1.1313,-1.131,-1.1304,-1.1318,-1.1294,-1.1309,-1.1313,-1.1318,-1.1327,-1.12,-1.1318,-1.1318,-1.1317,-1.1317,-1.1317,0,-1.1458,-1.1445,-1.1452,-1.1447,-1.1454,-1.1417,-1.141,-1.1419,-1.1434,-1.1426,-1.1431,-1.1445,-1.1454,-1.1431,-1.1437,-1.1453,-1.1437,-1.1456,-1.1456,-1.1455,-1.1348,-1.1339,-1.1469,-1.1469,-1.1469,-1.1469,-1.1469,-1.1469,-1.1526,-1.1556,-1.1537,-1.1564,-1.155,-1.1566,-1.1565,-1.1563,-1.1556,-1.1574,-1.158,-1.1565,-1.1551,-1.1556,-1.1564,-1.1557,-1.1562,-1.1588,-1.1576,-1.1477,-1.1462,-1.1448,-1.1439,-1.1589,-1.1589,-1.1682,-1.1682,-1.1683]},{"header":{"parameterUnit":"m.s-1","parameterCategory":1,"la1":30.2991,"la2":30.254,"lo1":-89.0895,"lo2":-89.0444,"dy":0.0017,"dx":0.0017,"nx":28,"ny":28,"refTime":"2025-12-11T03:00:00:Z","depth":0,"parameterNumber":3,"parameterNumberName":"V-component_of_WINDS"},"data":[0,0,0,0,0,0,0,0,0,0,0,0,0,0,0,0,0,0,0,0,0,0,0,0,0,0,0,0,0,0,0,0,0,0,0,0,0,0,0,0,0,0,0,0,0,0,0,0,0,0,0,0,0,0,0,0,0,0,1.0793,1.0793,0,1.0716,1.0715,1.0714,1.0725,1.0726,1.0728,1.0729,1.0645,1.0642,1.0638,0,0,0,0,0,0,0,0,0,0,0,0,0,1.0947,1.0944,1.0793,1.0792,1.0791,1.0716,1.0715,1.0714,1.0725,1.0726,1.0728,1.0729,1.0646,1.0642,1.0638,0,0,0,0,0,0,0,0,0,0,0,0,0,1.0876,1.0943,1.0794,1.0788,1.0787,1.0716,1.0715,1.0714,1.0724,1.0726,1.0728,1.073,1.0648,1.0643,1.0638,1.0567,0,0,1.0622,1.062,0,0,0,0,0,0,0,0,1.088,1.087,1.079,1.0788,1.0787,1.0732,1.0739,1.0664,1.0724,1.0748,1.0729,1.0731,1.0672,1.0665,1.0646,1.0563,1.0559,1.0621,1.0618,1.0616,1.0615,0,0,0,0,0,0,0,1.0885,1.0874,1.0763,1.0788,1.0787,1.0788,1.078,1.0725,1.07,1.0746,1.0747,1.0737,1.0672,1.0651,1.0644,1.0558,1.0621,1.0617,1.0614,1.0612,1.0412,1.041,0,0,0,0,0,0,1.0892,1.0878,1.0765,1.076,1.0839,1.0784,1.0775,1.0748,1.0701,1.0695,1.0736,1.0738,1.0659,1.065,1.0641,1.0555,1.0616,1.0611,1.0608,1.0414,1.0412,1.0409,0,0,0,0,0,0,1.0895,1.0882,1.0768,1.0819,1.0805,1.0779,1.0748,1.0745,1.0725,1.0693,1.0688,1.072,1.066,1.0649,1.0585,1.0552,1.0609,1.0604,1.0417,1.0413,1.041,1.0381,0,0,0,0,0,0,1.09,1.0883,1.0856,1.0819,1.0802,1.0714,1.0746,1.0742,1.0716,1.0718,1.0676,1.0671,1.0661,1.0593,1.058,1.0546,1.06,1.042,1.0415,1.0411,1.0385,1.0378,1.0371,0,0,0,0,0,1.0905,1.0851,1.0855,1.0841,1.0769,1.0712,1.0703,1.0693,1.0713,1.0686,1.0666,1.0673,1.0558,1.0586,1.0572,1.0536,1.0422,1.0417,1.0412,1.0388,1.0379,1.0371,0,0,0,0,0,0,1.0883,1.0845,1.085,1.0782,1.0751,1.0714,1.068,1.0684,1.0645,1.0648,1.0637,1.0627,1.0563,1.0543,1.0575,1.0465,1.0493,1.0484,1.048,1.0471,1.0464,1.0469,1.0596,0,0,0,0,0,1.0871,1.083,1.0798,1.0741,1.0726,1.0705,1.068,1.0676,1.0642,1.0629,1.0604,1.057,1.0526,1.0498,1.0456,1.0383,1.0373,1.0351,1.0344,1.0338,1.0331,1.029,1.028,1.0393,1.0393,1.0393,0,0,1.0844,1.0819,1.0793,1.0736,1.0711,1.0668,1.0694,1.0647,1.0614,1.0621,1.056,1.0541,1.0502,1.0434,1.0402,1.0415,1.0298,1.0332,1.0328,1.0323,1.0284,1.0273,1.0264,1.0389,1.039,1.0391,0,0,1.0773,1.075,1.07,1.0675,1.0638,1.0625,1.0613,1.0576,1.0564,1.0503,1.0508,1.0468,1.0393,1.0365,1.0341,1.0261,1.0265,1.0248,1.021,1.017,1.0162,1.0154,1.0124,1.0113,1.0241,1.0241,1.0241,0,1.0744,1.068,1.0673,1.0626,1.06,1.0607,1.0555,1.0531,1.0481,1.0463,1.0479,1.0385,1.036,1.0285,1.0265,1.0246,1.0231,1.0252,1.0164,1.0156,1.0148,1.0119,1.0108,1.0239,1.0239,1.0239,1.0239,0,1.0646,1.0601,1.0565,1.0518,1.0489,1.044,1.0424,1.0395,1.0393,1.0379,1.0316,1.0286,1.0238,1.022,1.0217,1.0144,1.0154,1.0167,1.0194,1.0135,1.0108,1.0097,1.0236,1.0237,1.0237,1.0238,0,0,1.0557,1.0509,1.0496,1.0475,1.0434,1.0399,1.035,1.0304,1.0279,1.0245,1.0202,1.014,1.0152,1.0125,1.0119,1.0085,1.0022,1.0102,1.0101,1.0087,0.9938,0.9928,0.9915,1.0025,1.0023,1.0022,0.9941,0,1.0482,1.0396,1.0389,1.0311,1.0269,1.0275,1.0232,1.0202,1.0187,1.0148,1.0131,1.0087,1.0107,1.009,1.0057,1.0037,0.9992,1.0043,0.9984,0.9982,0.9992,0.9901,0.989,0.9816,0.9931,0.9929,0.9928,0,1.0381,1.0346,1.0264,1.023,1.0212,1.0174,1.0132,1.0095,1.0061,1.0053,1.0023,1.0022,0.997,1.0001,0.9929,0.9964,0.9939,0.9926,0.9923,0.9916,0.995,0.989,0.9792,0.978,0.9911,0.9913,0.9914,0,1.0324,1.0255,1.0198,1.018,1.0139,1.0111,1.0093,1.0061,1.0034,0.9997,0.998,0.9937,0.9912,0.9879,0.9866,0.989,0.9794,0.9824,0.9784,0.9784,0.9762,0.9763,0.9656,0.9749,0.9749,0.9749,0.9749,0,1.0239,1.0188,1.0171,1.0136,1.0079,1.0071,1.0015,0.9998,0.9969,0.993,0.9932,0.9895,0.9881,0.984,0.983,0.9771,0.976,0.9751,0.9748,0.975,0.9751,0.9732,0.9737,0.9746,0.9747,0.9747,0.9748,0,1.0164,1.0151,1.0088,1.0056,1.0046,1.0006,0.9977,0.9942,0.9928,0.9878,0.9865,0.9843,0.9796,0.9781,0.9723,0.9716,0.9647,0.965,0.9659,0.9658,0.9618,0.9622,0.9495,0.9477,0.9583,0.9582,0.9581,0,1.011,1.0072,1.0035,1.001,0.9991,0.9949,0.9922,0.9913,0.9885,0.9844,0.9813,0.9767,0.9729,0.9653,0.9631,0.9587,0.9588,0.9546,0.9581,0.9583,0.9585,0.9587,0.9583,0.9539,0.9538,0.9537,0.9536,0,1.0016,1.0011,0.9973,0.9933,0.9901,0.9869,0.9837,0.9816,0.9802,0.9769,0.9722,0.9693,0.9635,0.9588,0.9544,0.9523,0.9527,0.9526,0.9514,0.9514,0.9521,0.9516,0.9639,0.9529,0.9529,0.953,0.953,0.9531,0.9949,0.9915,0.9884,0.9842,0.9817,0.9788,0.9754,0.9736,0.9697,0.965,0.9647,0.9595,0.9562,0.9503,0.948,0.9439,0.945,0.9434,0.9429,0.9425,0.9421,0.9529,0.9431,0.9431,0.9431,0.9431,0.9432,0,0.9853,0.9834,0.9796,0.9752,0.9718,0.9727,0.9693,0.9663,0.9619,0.9588,0.9552,0.9497,0.9452,0.9427,0.9382,0.9353,0.9354,0.9341,0.9343,0.9338,0.9414,0.9428,0.9342,0.9342,0.9342,0.9342,0.9342,0.9342,0.98,0.9743,0.9735,0.9665,0.9646,0.9597,0.9576,0.9549,0.9524,0.9464,0.9427,0.9412,0.9383,0.9336,0.9295,0.9288,0.9271,0.9257,0.9252,0.9323,0.9332,0.9341,0.9354,0.9254,0.9254,0.9179,0.9178,0.9178]}]]